Regional Weather Roundup
Issued by NWS Grand Forks, ND

Home | Current Version | Previous Version | Text Only | Print | Product List | Glossary On
Versions: 1 2 3 4 5 6 7 8 9 10 11 12 13 14 15 16 17 18 19 20 21 22 23 24 25 26 27 28 29 30 31 32 33 34 35 36 37 38 39 40 41 42 43 44 45 46 47 48 49 50
000
ASUS43 KFGF 311131
RWRFGF
PRAIRIE TO PINES  WEATHER ROUNDUP
NATIONAL WEATHER SERVICE EASTERN NORTH DAKOTA/GRAND FORKS ND
600 AM CDT TUE MAY 31 2016

 **SATELLITE DATA USED TO AUGMENT SKY COVER AT AUTOMATED STATIONS**
 *****  WEATHER ACROSS EASTERN NORTH DAKOTA  *****

CITY           SKY/WX    TMP DP  RH WIND       PRES   REMARKS
GRAND FORKS    CLOUDY    60  57  89 S10       29.69R
GRAND FRKS AFB MOCLDY    59  59 100 S10       29.68S
GRAND FRKS NWS   N/A     57 N/A N/A S9          N/A
DEVILS LAKE    CLOUDY    58  56  93 S13       29.65F
FARGO          CLOUDY    62  58  86 S12       29.73S
WAHPETON ARPT  CLOUDY    59  55  88 SW6       29.76S
$$

 ***** WEATHER ACROSS CENTRAL AND WESTERN NORTH DAKOTA  *****

CITY           SKY/WX    TMP DP  RH WIND       PRES   REMARKS
BISMARCK       CLEAR     49  45  86 W17       29.79R
MINOT          LGT RAIN  57  54  89 NW6       29.68F FOG
JAMESTOWN      CLOUDY    57  54  89 W12       29.71F
MINOT AFB      RAIN      54  54 100 NW8       29.66F FOG
GARRISON         N/A     51  49  92 W16       29.72F
WILLISTON      CLOUDY    51  48  89 W9        29.76S
DICKINSON      CLOUDY    45  42  89 W17       29.79F
HETTINGER      PTCLDY    44  40  85 W17G25    29.87F
$$

 *****  OTHER AIRPORT OBSERVATIONS IN OUR AREA  *****

CITY           SKY/WX    TMP DP  RH WIND       PRES   REMARKS
WALHALLA       FAIR      55  52  88 E12G18    29.68F
GRAFTON AIRPOR CLOUDY    61  61 100 SE21      29.70R
VALLEY CITY AR CLOUDY    57  57 100 SW10      29.74S
CANDO          PTSUNNY   57  57 100 SE10      29.66F
CAVALIER APRT  CLOUDY    59  57  94 SE8G17    29.68S
GWINNER        PTSUNNY   59  57  94 SW9       29.77R
ROLLA          LGT RAIN  55  55 100 E20G25    29.66F
 ***** THE ABOVE OBSERVATIONS ARE NON NWS ARE NOT QUALITY
       CONTROLLED AND MAY MIS-REPORT RAIN FOR SNOW...
$$

  *****  WEATHER ACROSS NORTHERN MINNESOTA  *****

CITY           SKY/WX    TMP DP  RH WIND       PRES   REMARKS
FLAG ISLAND    RAIN      54  50  87 E7G16     29.87S
WARROAD        RAIN      54  50  87 E20G26    29.84S
ROSEAU         LGT RAIN  54  48  82 E17G25    29.80S
HALLOCK        CLOUDY    61  55  82 SE14G25   29.70R
THF RVR FALLS  CLOUDY    59  54  82 E16G26    29.75R
BAUDETTE       LGT RAIN  53  50  89 E18       29.86S
WASKISH        HVY RAIN  52  50  93 E14G21    29.85F
CROOKSTON      CLOUDY    61  59  94 S10       29.73R
STEPHEN NDAWN    N/A     61  57  88 SE17        N/A
GREENBUSH NDAW   N/A     55  54  94 E18         N/A
$$
  *****  WEATHER ACROSS CENTRAL AND WEST MINNESOTA  *****

CITY           SKY/WX    TMP DP  RH WIND       PRES   REMARKS
FOSSTON        LGT RAIN  57  57 100 SE12G20   29.74S
BEMIDJI        LGT RAIN  53  52  96 E17G26    29.81S
PARK RAPIDS    CLOUDY    59  56  89 E16G24    29.79S
ELBOW LAKE     CLOUDY    60  59  95 S13       29.78R
WADENA         CLOUDY    59  57  94 SE3       29.79R
DETROIT LAKES  CLOUDY    61  57  88 SE12      29.77R
MOORHEAD       DRIZZLE   61  57  88 S8        29.75S
FERGUS FALLS   CLOUDY    63  61  94 S9        29.74R
MORRIS MN      CLOUDY    63  61  94 S14G21    29.77R
STAPLES        RAIN      61  59  94 E5        29.79R
$$
  *****  WEATHER ELSEWHERE ACROSS MINNESOTA  *****

CITY           SKY/WX    TMP DP  RH WIND       PRES   REMARKS
DULUTH         LGT RAIN  47  41  80 E20G28    29.97F
INTRNTL FALLS  CLOUDY    54  46  74 SE17G26   29.92R
ELY            CLOUDY    48  39  71 E15G21    30.01S
CLOQUET        CLOUDY    46  43  87 E14G20    29.95F
WHEATON        CLOUDY    63  59  88 W12       29.78S
BRAINERD       LGT RAIN  56  54  93 VRB7      29.84S FOG
HIBBING        LGT RAIN  46  43  89 E9G20     29.95F
ALEXANDRIA     CLOUDY    60  58  92 SE5       29.79R
SAINT CLOUD    LGT RAIN  62  61  96 E7        29.83F
MINNEAPOLIS    CLOUDY    66  57  72 S5        29.87S
$$

  *****  WEATHER ACROSS SOUTH DAKOTA  *****

CITY           SKY/WX    TMP DP  RH WIND       PRES   REMARKS
SIOUX FALLS    CLOUDY    60  55  83 NW12      29.89R
BROOKINGS      CLOUDY    57  55  94 W13G20    29.86R
WATERTOWN      MOCLDY    58  54  86 W13G22    29.82S
HURON          PTCLDY    55  52  89 W12       29.87S
SISSETON         N/A     60  57  89 W5        29.77S
ABERDEEN       PTCLDY    57  53  86 W10       29.82S
MITCHELL       MOCLDY    57  54  89 W8        29.90R
PIERRE         CLEAR     50  44  80 W16       29.93R
MOBRIDGE       CLOUDY    52  45  77 W6        29.85R
RAPID CITY     CLEAR     43  33  68 W8        29.99F
$$

  *****  SOME WEATHER IN NEARBY STATES *****

CITY           SKY/WX    TMP DP  RH WIND       PRES   REMARKS
GLASGOW MT     CLOUDY    51  48  89 NW16      29.86S
GREAT FALLS MT CLEAR     43  37  79 NW13      30.22S
CHEYENNE WY    CLOUDY    44  38  79 NW6       30.16R
SCOTTSBLUFF NE CLOUDY    50  42  74 W8        30.09R
OMAHA NE       MOCLDY    66  62  87 N6        29.89R
DES MOINES IA  CLOUDY    65  58  78 S10       29.93R
DAVENPORT IA   PTCLDY    65  59  81 E7        29.95S
CHICAGO IL     MOCLDY    66  54  65 CALM      29.99R
EAU CLAIRE WI  CLOUDY    63  59  87 CALM      29.90R
LA CROSSE WI   MOCLDY    64  59  83 SE7       29.92R
$$

  *****  SOME NATIONAL WEATHER *****

CITY           SKY/WX    TMP DP  RH WIND       PRES   REMARKS
LA GUARDIA NY  PTSUNNY   73  68  83 NW7       29.94R
RALEIGH NC     CLOUDY    70  69  97 E5        29.96R FOG
ATLANTA GA     MOCLDY    72  61  68 NE7       29.96R
NEW ORLEANS LA MOCLDY    73  70  90 CALM      29.94R
OKLAHOMA CITY  MOCLDY    67  65  93 SE6       29.86F
ALBUQUERQUE NM MOCLDY    61  36  39 E3        30.01R
SALT LAKE CITY CLEAR     55  41  59 NE3       30.05S
LOS ANGELES CA CLOUDY    59  55  88 NW3       29.87F
BOISE ID       CLEAR     52  37  56 VRB3      30.09S
SEATTLE WA     PTCLDY    54  45  71 NE3       30.15F
$$

*** WEATHER ACROSS MANITOBA...SASKATCHEWAN AND ONTARIO ***
                ***ONTARIO***

CITY           SKY/WX    TMP DP  RH WIND       PRES   REMARKS
GERALDTON      PTCLDY    39  34  81 NE5       30.17R
THUNDER BAY    MOCLDY    46  43  87 E12       30.13S
SIOUX LOOKOUT  MOCLDY    46  45  93 SE5       30.07S
TORONTO        MOSUNNY   64  50  59 NW2       29.99R
BIG TROUT LK   CLOUDY    28  27  93 NE8       30.25R WCI  20
PICKLE LAKE    PTCLDY    37  34  87 E8        30.16
DRYDEN         CLOUDY    48  41  76 E13G23    30.01S
KENORA         LGT RAIN  54  45  71 E13G28    29.92S
$$
                *** MANITOBA***

CITY           SKY/WX    TMP DP  RH WIND       PRES   REMARKS
BRANDON        LGT RAIN  54  52  94 NE26G33   29.75F FOG
DAUPHIN        CLOUDY    55  52  88 NE12      29.89F
ISLAND LAKE    CLEAR     41  36  81 E3        30.18R
PILOT MOUND      N/A     54  52  94 E18G25      N/A
THE PAS        CLOUDY    45  41  87 NE7       30.09S
THOMPSON       CLEAR     34  30  86 E5        30.24R
WINNIPEG       LGT RAIN  54  50  87 E17G30    29.79F
LYNN LAKE      LGT RAIN  43  41  93 E6        30.19R
CHURCHILL      CLOUDY    27  25  93 SE9       30.41R WCI  17
GILLAM         LGT SNOW  28  27  93 NE13      30.30F WCI  18
$$
                ***SASKATCHEWAN***

CITY           SKY/WX    TMP DP  RH WIND       PRES   REMARKS
ESTEVAN        LGT RAIN  54  52  94 N15G22    29.74S FOG
KINDERSLEY     CLOUDY    50  48  93 NW12G18   30.08S
LLOYDMINSTER   CLOUDY    50  48  93 N8        30.12S
PRINCE ALBERT  CLOUDY    52  50  93 NE10      30.05R
REGINA         LGT RAIN  52  52 100 N13       29.89S FOG
YORKTON        CLOUDY    52  50  93 N15G21    29.90F
N. BATTLEFORD  CLOUDY    50  48  93 NW3       30.09R
LA RONGE       CLOUDY    50  50 100 NE3       30.11S
SASKATOON      CLOUDY    48  48 100 N9        30.05R
SWIFT CURRENT  PTCLDY    48  48 100 N12       30.01R
$$
NOTE: THESE ARE AUTOMATED STATIONS WITH LIMITED QUALITY CONTROL
      "FAIR" INDICATES FEW OR NO CLOUDS BELOW 12,000 FEET WITH NO
      SIGNIFICANT WEATHER AND/OR OBSTRUCTIONS TO VISIBILITY.
      SKY/WX - SKY CONDITION AND SIGNIFICANT WEATHER.
      TMP - AIR TEMPERATURE.    DP   - DEWPOINT TEMPERATURE.
      RH  - RELATIVE HUMIDITY.  PRES - PRESSURE.
      HX  - HEAT INDEX.         WCI  - WIND CHILL INDEX.
$



USA.gov is the U.S. government's official web portal to all federal, state and local government web resources and services.